CW1248 Weather Reports


Display with metric or nautical units.
time (UTC)temp
F
wind
direction
speed
MPH
gust
MPH
rain 1hr
in
rain 24hr
in
rain mn
in
humidity
%
barometer
mb
20260831091515 72 214 4.0 8.0 0.00 0.00 0.00 92 1008.3
20260831090009 72 212 3.0 9.0 0.00 0.00 0.00 92 1008.3
20260831084531 72 196 4.0 10.0 0.00 0.00 0.00 92 1008.4
20260831083011 72 157 3.0 9.0 0.00 0.00 0.00 91 1008.2
20260831081522 72 190 4.0 8.0 0.00 0.00 0.00 91 1008.1
20260831080026 72 190 3.0 9.0 0.00 0.00 0.00 91 1008.1
20260831074524 72 215 5.0 10.0 0.00 0.00 0.00 91 1008.1
20260831073013 72 227 2.0 7.0 0.00 0.00 0.00 91 1008.0
20260831071508 72 169 5.0 11.0 0.00 0.00 0.00 90 1008.0
20260831070042 72 207 5.0 11.0 0.00 0.00 0.00 90 1008.3
20260831064529 72 183 3.0 11.0 0.00 0.00 0.00 90 1008.5
20260831063016 72 129 5.0 9.0 0.00 0.00 0.00 89 1008.6
20260831061523 72 153 3.0 7.0 0.00 0.00 0.00 89 1008.8
20260831060018 72 178 2.0 10.0 0.00 0.00 0.00 88 1009.0
20260831054515 72 139 6.0 11.0 0.00 0.00 0.00 88 1009.2
20260831053019 73 119 2.0 7.0 0.00 0.00 0.00 87 1009.3
20260831051535 73 117 3.0 10.0 0.00 0.00 0.00 87 1009.5
20260831050041 73 168 4.0 9.0 0.00 0.00 0.00 87 1009.7
20260831044527 73 146 5.0 13.0 0.00 0.00 0.00 87 1009.6
20260831043024 73 113 3.0 15.0 0.00 0.00 0.00 87 1009.7
20260831041520 74 135 3.0 12.0 0.00 0.00 0.00 86 1009.5
20260831040036 74 147 6.0 15.0 0.00 0.00 0.00 86 1009.7
20260831034533 74 126 6.0 11.0 0.00 0.00 0.00 86 1009.5
20260831033047 74 115 4.0 20.0 0.00 0.00 0.00 85 1009.6
20260831031527 74 146 5.0 13.0 0.00 0.00 0.00 85 1009.8
20260831030026 74 142 6.0 16.0 0.00 0.00 0.00 84 1009.6
20260831024517 75 131 6.0 14.0 0.00 0.00 0.00 82 1009.6
20260831023027 75 138 6.0 14.0 0.00 0.00 0.00 81 1009.8
20260831021529 76 144 6.0 18.0 0.00 0.00 0.00 80 1009.5
20260831020036 76 161 9.0 18.0 0.00 0.00 0.00 79 1009.8
20260831014521 77 166 5.0 13.0 0.00 0.00 0.00 78 1009.7
20260831013028 78 168 5.0 14.0 0.00 0.00 0.00 77 1009.8
20260831011531 79 158 8.0 14.0 0.00 0.00 0.00 75 1009.5
20260831010026 79 100 8.0 16.0 0.00 0.00 0.00 72 1009.4
20260831004523 81 121 7.0 17.0 0.00 0.00 0.00 69 1008.9
20260831003007 82 207 6.0 12.0 0.00 0.00 0.00 68 1009.2
20260831001514 83 153 4.0 12.0 0.00 0.00 0.00 66 1008.9
20260831000006 84 158 4.0 13.0 0.00 0.00 0.00 65 1008.5
20260830234518 85 142 5.0 14.0 0.00 0.00 0.00 64 1008.6
20260830233004 86 111 8.0 15.0 0.00 0.00 0.00 64 1008.7
20260830231514 87 153 5.0 14.0 0.00 0.00 0.00 64 1008.7
20260830230020 87 200 5.0 18.0 0.00 0.00 0.00 65 1008.7
20260830224515 88 153 5.0 16.0 0.00 0.00 0.00 63 1008.6
20260830223010 88 130 6.0 18.0 0.00 0.00 0.00 63 1008.3
20260830221513 89 111 2.0 13.0 0.00 0.00 0.00 64 1008.3
20260830220024 90 80 5.0 9.0 0.00 0.00 0.00 61 1008.4
20260830214526 91 97 5.0 13.0 0.00 0.00 0.00 62 1008.5
20260830213010 90 111 6.0 15.0 0.00 0.00 0.00 61 1008.5
20260830211518 91 124 6.0 15.0 0.00 0.00 0.00 60 1008.5
20260830210013 90 51 4.0 16.0 0.00 0.00 0.00 66 1008.6
20260830204507 89 81 7.0 17.0 0.00 0.00 0.00 65 1008.7
20260830203012 90 54 6.0 12.0 0.00 0.00 0.00 65 1009.0
20260830201520 89 83 6.0 12.0 0.00 0.00 0.00 66 1009.0
20260830200027 88 76 5.0 18.0 0.00 0.00 0.00 67 1009.2
20260830194520 87 74 5.0 12.0 0.00 0.00 0.00 69 1009.0
20260830193015 87 121 7.0 14.0 0.00 0.00 0.00 66 1009.3
20260830191516 86 49 5.0 16.0 0.00 0.00 0.00 68 1009.1
20260830190033 86 88 7.0 16.0 0.00 0.00 0.00 69 1009.2
20260830184531 85 93 9.0 15.0 0.00 0.00 0.00 71 1009.3
20260830183017 84 84 5.0 15.0 0.00 0.00 0.00 72 1009.7
20260830181525 82 124 5.0 16.0 0.00 0.00 0.00 73 1010.0
20260830180027 82 77 8.0 16.0 0.00 0.00 0.00 73 1010.0
20260830174517 81 83 5.0 13.0 0.00 0.00 0.00 76 1010.1
20260830173011 80 132 4.0 13.0 0.00 0.00 0.00 80 1010.5
20260830171530 78 82 7.0 13.0 0.00 0.00 0.00 79 1010.7
20260830170041 78 93 4.0 9.0 0.00 0.00 0.00 79 1010.7
20260830164530 77 98 6.0 13.0 0.00 0.00 0.00 80 1010.8
20260830163026 78 90 4.0 11.0 0.00 0.00 0.00 79 1010.7
20260830161524 78 116 7.0 16.0 0.00 0.00 0.00 78 1010.2
20260830160026 79 96 9.0 16.0 0.00 0.00 0.00 79 1009.6
20260830154517 77 76 4.0 11.0 0.00 0.00 0.00 82 1009.6
20260830153003 76 92 6.0 14.0 0.00 0.00 0.00 83 1009.6
20260830151505 75 75 7.0 11.0 0.00 0.00 0.00 84 1009.7
20260830150007 73 92 6.0 11.0 0.00 0.00 0.00 87 1009.9
20260830144506 72 77 4.0 9.0 0.00 0.00 0.00 89 1010.0
20260830143003 71 76 6.0 12.0 0.00 0.00 0.00 90 1010.0
20260830141505 70 78 4.0 10.0 0.00 0.00 0.00 92 1009.8
20260830140024 70 49 4.0 10.0 0.00 0.00 0.00 93 1010.1
20260830134510 69 55 3.0 8.0 0.00 0.00 0.00 93 1010.5
20260830133015 69 102 4.0 8.0 0.00 0.00 0.00 94 1010.4
20260830131504 68 81 5.0 9.0 0.00 0.00 0.00 94 1010.2
20260830130016 68 90 2.0 8.0 0.00 0.00 0.00 94 1009.9
20260830124530 67 56 4.0 8.0 0.00 0.00 0.00 94 1009.9
20260830123004 67 63 4.0 8.0 0.00 0.00 0.00 94 1009.8
20260830121511 67 99 4.0 8.0 0.00 0.00 0.00 93 1009.9
20260830120009 67 70 5.0 10.0 0.00 0.00 0.00 93 1009.6
20260830114508 67 70 2.0 10.0 0.00 0.00 0.00 93 1009.7
20260830113009 67 88 3.0 8.0 0.00 0.02 0.00 93 1009.7
20260830111517 66 50 3.0 7.0 0.00 0.06 0.00 93 1009.5
20260830110025 66 56 2.0 8.0 0.00 0.08 0.00 92 1009.7
20260830104524 67 90 2.0 6.0 0.00 0.11 0.00 92 1009.8
20260830103027 67 74 4.0 8.0 0.00 0.13 0.00 92 1009.8
20260830101511 67 103 2.0 4.0 0.00 0.16 0.00 92 1010.0
20260830100011 67 86 1.0 5.0 0.00 0.20 0.00 92 1010.0
20260830094525 67 115 3.0 8.0 0.00 0.22 0.00 91 1009.7
20260830093015 67 108 4.0 8.0 0.00 0.25 0.00 91 1009.6